Home > Weather > Leesburg > Past weeks

Flag for USA Weather for the Past 2 Weeks in Leesburg, Virginia, USA

Now
59 °F

Rain. Mostly cloudy.


Feels Like: 58 °F
Forecast: 55 / 64 °F
Wind: 6 mph from East

Location: Leesburg / Godfrey

Current Time: May 4, 2016 at 12:27:24 AM

Latest Report: May 3, 2016 at 11:35 PM


Visibility: 3 mi

Pressure: 29.80 "Hg

Humidity: 100%

Dew Point: 59 °F

Location of LeesburgLocation

Historic Weather in Leesburg — Graph

°F

Leesburg Temperature Yesterday

Maximum temperature yesterday: 72 °F (at 2:15 PM)
Minimum temperature yesterday: 59 °F (at 10:35 PM)
Average temperature yesterday: 65 °F

High & Low Weather Summary for the Past Weeks

 TemperatureHumidityPressure
High86 °F (Apr 26, 3:55 PM)100% (Apr 23, 12:15 AM)30.34 "Hg (Apr 23, 12:15 AM)
Low43 °F (Apr 20, 6:35 AM)22% (Apr 20, 3:55 PM)29.71 "Hg (Apr 26, 3:55 PM)
Average61 °F74%30.00 "Hg
* Reported Apr 18 10:15 PM — May 3 10:55 PM, Leesburg, Weather by CustomWeather, © 2016

Note: Actual official high and low records may vary slightly from our data, if they occured in-between our weather recording intervals... More about our weather records

Advertising

Leesburg Weather History for the Previous 24 Hours

Scroll right to see more
 ConditionsComfort  
Time TempWeatherWind HumidityBarometerVisibility
10:55 PM
Tue, May 3
59 °FRain. Overcast.8 mph100%29.80 "Hg3 mi
10:35 PM59 °FHeavy rain. Overcast.5 mph100%29.81 "Hg3 mi
10:15 PM61 °FRain. Overcast.6 mph100%29.80 "Hg4 mi
9:55 PM61 °FLight rain. Mostly cloudy.5 mph100%29.80 "Hg7 mi
9:35 PM61 °FLight rain. Overcast.6 mph100%29.79 "Hg7 mi
9:15 PM63 °FOvercast.8 mph100%29.78 "Hg7 mi
8:55 PM63 °FCloudy.No wind100%29.78 "Hg10 mi
8:35 PM63 °FLight rain. Mostly cloudy.5 mph100%29.77 "Hg7 mi
8:15 PM64 °FDrizzle. Mostly cloudy.5 mph94%29.78 "Hg10 mi
7:55 PM64 °FLight rain. More clouds than sun.3 mph94%29.78 "Hg7 mi
6:55 PM64 °FOvercast.5 mph88%29.74 "Hg10 mi
6:15 PM66 °FBroken clouds.5 mph83%29.75 "Hg10 mi
5:55 PM66 °FBroken clouds.5 mph88%29.76 "Hg10 mi
5:15 PM66 °FLight rain. More clouds than sun.3 mph88%29.75 "Hg10 mi
4:55 PM64 °FLight rain. More clouds than sun.No wind94%29.76 "Hg10 mi
4:35 PM66 °FLight rain. Overcast.3 mph88%29.75 "Hg10 mi
4:15 PM68 °FThundershowers. Cloudy.3 mph78%29.75 "Hg10 mi
3:55 PM70 °FBroken clouds.6 mph69%29.75 "Hg10 mi
3:35 PM70 °FMostly cloudy.3 mph69%29.76 "Hg10 mi
3:15 PM72 °FPartly sunny.3 mph65%29.76 "Hg10 mi
2:55 PM72 °FScattered clouds.9 mph69%29.77 "Hg10 mi
2:35 PM70 °FBroken clouds.9 mph73%29.77 "Hg10 mi
2:15 PM72 °FBroken clouds.8 mph69%29.78 "Hg10 mi
1:55 PM70 °FScattered clouds.5 mph73%29.80 "Hg10 mi
1:35 PM68 °FBroken clouds.No wind78%29.80 "Hg10 mi
1:15 PM68 °FCloudy.6 mph78%29.80 "Hg10 mi
12:55 PM68 °FMostly cloudy.6 mph78%29.81 "Hg10 mi
12:35 PM68 °FMore clouds than sun.No wind78%29.82 "Hg10 mi
12:15 PM68 °FMostly cloudy.5 mph78%29.82 "Hg10 mi
11:55 AM66 °FPartly sunny.5 mph83%29.82 "Hg10 mi
11:35 AM66 °FScattered clouds.7 mph83%29.82 "Hg10 mi
11:15 AM64 °FOvercast.9 mph88%29.81 "Hg10 mi
10:55 AM64 °FBroken clouds.6 mph88%29.83 "Hg10 mi
10:35 AM64 °FBroken clouds.6 mph88%29.82 "Hg10 mi
10:15 AM64 °FMore clouds than sun.No wind94%29.83 "Hg10 mi
9:55 AM63 °FMore clouds than sun.9 mph100%29.83 "Hg10 mi
9:35 AM63 °FMore clouds than sun.5 mph94%29.81 "Hg10 mi
9:15 AM63 °FOvercast.3 mph100%29.82 "Hg10 mi
8:55 AM63 °FMostly cloudy.5 mph100%29.82 "Hg7 mi
8:15 AM63 °FMostly cloudy.3 mph100%29.82 "Hg10 mi
7:55 AM63 °FMostly cloudy.3 mph100%29.82 "Hg10 mi
7:15 AM63 °FMore clouds than sun.3 mph100%29.80 "Hg7 mi
6:55 AM63 °FOvercast.No wind100%29.80 "Hg7 mi
6:15 AM63 °FLight rain. Overcast.No wind100%29.80 "Hg4 mi
5:55 AM63 °FLight rain. Mostly cloudy.No wind100%29.80 "Hg3 mi
5:15 AM63 °FLight rain. Low clouds.No wind100%29.81 "Hg3 mi
4:55 AM63 °FFog.No wind100%29.81 "Hg3 mi
4:15 AM63 °FDrizzle. Low clouds.No wind100%29.82 "Hg4 mi
3:55 AM63 °FFog.No wind100%29.81 "Hg5 mi
3:15 AM63 °FLight rain. Mostly cloudy.No wind100%29.83 "Hg4 mi
2:55 AM63 °FFog.No wind100%29.83 "Hg5 mi
2:35 AM63 °FDrizzle. Low clouds.No wind100%29.84 "Hg7 mi
2:15 AM63 °FLow clouds.No wind100%29.84 "Hg10 mi
1:35 AM63 °FLow clouds.5 mph100%29.84 "Hg10 mi
12:55 AM64 °FFog.3 mph100%29.84 "Hg4 mi
12:15 AM64 °FPassing clouds.No wind100%29.86 "Hg10 mi
Weather by CustomWeather, © 2016

See weather overviewHow to use our weather pages